This is the latest recevied weather packets stored in our database for station/object KB9VKQ-13. If no packets are shown the sender has not sent any weather packets the latest 1 day(s).
| Time | Temp. | Humidity | Pressure | Rain* | Wind** | Luminosity | Snow |
|---|---|---|---|---|---|---|---|
| 1778029631 | 8.89° C | - | 0 hPa | 4.06 mm | 2.68 m/s, 34° | - | - |
| 1778029001 | 8.89° C | - | 0 hPa | 3.81 mm | 2.68 m/s, 24° | - | - |
| 1778028401 | 8.89° C | - | 0 hPa | 2.79 mm | 1.34 m/s, 301° | - | - |
| 1778027771 | 9.44° C | - | 0 hPa | 1.02 mm | 3.58 m/s, 356° | - | - |
| 1778027141 | 9.44° C | - | 0 hPa | 0.76 mm | 1.34 m/s, 340° | - | - |
| 1778026511 | 9.44° C | - | 0 hPa | 0.76 mm | 0.89 m/s, 357° | - | - |
| 1778025911 | 9.44° C | - | 0 hPa | 0.51 mm | 2.24 m/s, 3° | - | - |
| 1778025280 | 9.44° C | - | 0 hPa | 0.25 mm | 1.79 m/s, 1° | - | - |
| 1778024680 | 9.44° C | - | 0 hPa | 0.25 mm | 2.24 m/s, 8° | - | - |
| 1778024051 | 9.44° C | - | 0 hPa | 0 mm | 1.34 m/s, 4° | - | - |
| 1778023450 | 9.44° C | - | 0 hPa | 0.25 mm | 1.79 m/s, 359° | - | - |
| 1778022850 | 9.44° C | - | 0 hPa | 0.51 mm | 1.34 m/s, 49° | - | - |
| 1778022262 | 9.44° C | - | 0 hPa | 1.02 mm | 1.79 m/s, 24° | - | - |
| 1778021620 | 9.44° C | - | 0 hPa | 1.52 mm | 2.68 m/s, 359° | - | - |
| 1778020990 | 9.44° C | - | 0 hPa | 2.54 mm | 1.79 m/s, 359° | - | - |
| 1778020390 | 9.44° C | - | 0 hPa | 3.05 mm | 1.34 m/s, 25° | - | - |
| 1778019760 | 9.44° C | - | 0 hPa | 3.3 mm | 4.02 m/s, 55° | - | - |
| 1778019160 | 9.44° C | - | 0 hPa | 4.06 mm | 1.34 m/s, 356° | - | - |
| 1778018530 | 9.44° C | - | 0 hPa | 4.06 mm | 1.34 m/s, 356° | - | - |
| 1778017930 | 9.44° C | - | 0 hPa | 4.06 mm | 1.79 m/s, 62° | - | - |
| 1778017300 | 9.44° C | - | 0 hPa | 4.57 mm | 1.79 m/s, 3° | - | - |
| 1778016670 | 9.44° C | - | 0 hPa | 5.08 mm | 1.34 m/s, 350° | - | - |
| 1778016070 | 8.89° C | - | 0 hPa | 5.08 mm | 3.58 m/s, 359° | - | - |
| 1778015440 | 9.44° C | - | 0 hPa | 4.57 mm | 2.68 m/s, 356° | - | - |
| 1778014840 | 9.44° C | - | 0 hPa | 4.57 mm | 1.34 m/s, 66° | - | - |
* Rain latest hour (hover to see other rain measurements)
** Current wind speed in m/s (hover to see current wind gust speed)